User: anonymous   Login
Location: Unspecified
(0.0000°N, 0.0000°E)
Time: 09:31:50
(UTC+00:00)
Language:

Nadezhda 3 - Orbit

View from above orbital plane
View from above orbital plane
View from above satellite
View from above satellite

Ground track
Ground track

The orbit data is extracted from the following two-line orbital elements,

1 21152U 91019A   18023.66995887 +.00000029 +00000-0 +15244-4 0  9994
2 21152 082.9251 057.8376 0041105 340.6328 158.9362 13.74226970346955
Epoch (UTC): 23 January 2018 16:04:44
Eccentricity: 0.0041105
inclination: 82.9251°
perigee height: 954 km
apogee height: 1015 km
right ascension of ascending node: 57.8376°
argument of perigee: 340.6328°
revolutions per day: 13.74226970
mean anomaly at epoch: 158.9362°
orbit number at epoch: 34695

The dashed part of the orbit path shows where the satellite is in the earth's shadow,  

DLR